Group_Ship,Cruise_ID,JD_GMT,DATE_UTC_ddmmyyyy,TIME_UTC_hh:mm:ss,LAT_dec_degree,LONG_dec_degree,xCO2_EQU_ppm,xCO2_ATM_ppm,xCO2_ATM_interpolated_ppm,PRES_EQU_hPa,PRES_ATM@SSP_hPa,TEMP_EQU_C,SST_C,SAL_permil,fCO2_SW@SST_uatm,fCO2_ATM_interpolated_uatm,dfCO2_uatm,WOCE_QC_FLAG,QC_SUBFLAG
AOML_Explorer,Ex0824,230.743,17082008,17:49:56,25.3952,-64.1177,-9,382.08,-9,1014.4,1012.2,29.53,29.51,36.8109,-9,-9,-9,2,
AOML_Explorer,Ex0824,230.745,17082008,17:52:13,25.3821,-64.117,-9,382.2,-9,1014.3,1012.1,29.56,29.52,36.8064,-9,-9,-9,2,
AOML_Explorer,Ex0824,230.746,17082008,17:54:29,25.3689,-64.1161,-9,382.29,-9,1014.3,1012,29.54,29.53,36.7759,-9,-9,-9,2,
AOML_Explorer,Ex0824,230.748,17082008,17:56:46,25.3559,-64.1153,-9,382.39,-9,1014.1,1012,29.49,29.51,36.7714,-9,-9,-9,2,
AOML_Explorer,Ex0824,230.751,17082008,18:01:28,25.3288,-64.1134,421.39,-9,382.405,1014.4,1012.1,29.56,29.52,36.7783,403.104,366.128,36.976,2,
AOML_Explorer,Ex0824,230.753,17082008,18:04:15,25.3127,-64.1123,422.14,-9,382.407,1014.2,1011.8,29.53,29.55,3.3474,404.485,365.711,38.774,3,questionable/interpolated SSS
AOML_Explorer,Ex0824,230.755,17082008,18:07:01,25.297,-64.1112,422.54,-9,382.409,1014.2,1011.8,29.47,29.53,36.755,405.92,366.01,39.911,2,
AOML_Explorer,Ex0824,230.757,17082008,18:09:48,25.2809,-64.1101,427.92,-9,382.41,1014.3,1011.9,29.51,29.53,36.7471,410.397,366.049,44.348,2,
AOML_Explorer,Ex0824,230.759,17082008,18:12:34,25.2652,-64.109,428.26,-9,382.412,1014.4,1011.8,29.51,29.54,36.7393,410.939,366.004,44.935,2,
AOML_Explorer,Ex0824,230.761,17082008,18:15:20,25.2491,-64.1078,424.63,-9,382.413,1014.5,1011.9,29.52,29.54,36.7307,407.316,366.043,41.273,2,
AOML_Explorer,Ex0824,230.763,17082008,18:18:28,25.2314,-64.1065,421.64,-9,382.415,1014.5,1011.8,29.48,29.52,36.7092,404.828,366.024,38.804,2,
AOML_Explorer,Ex0824,230.765,17082008,18:21:14,25.2154,-64.1054,421.1,-9,382.416,1014.4,1012.1,29.49,29.5,36.6874,403.745,366.155,37.59,2,
AOML_Explorer,Ex0824,230.767,17082008,18:24:01,25.1998,-64.1043,422.01,-9,382.418,1014.5,1012.2,29.43,29.47,36.6711,405.23,366.22,39.01,2,
AOML_Explorer,Ex0824,230.771,17082008,18:29:34,25.1679,-64.1021,428.08,-9,382.421,1014.1,1012.1,29.39,29.37,36.6888,409.887,366.271,43.615,2,
AOML_Explorer,Ex0824,230.772,17082008,18:32:21,25.1518,-64.1009,423.06,-9,382.422,1014.1,1012.1,29.52,29.43,36.7584,403.76,366.221,37.539,2,
AOML_Explorer,Ex0824,230.774,17082008,18:35:07,25.136,-64.0998,422.26,-9,382.424,1014.1,1011.6,29.5,29.47,36.7327,404.04,366.001,38.039,2
AOML_Explorer,Ex0824,230.776,17082008,18:37:53,25.12,-64.0987,422.03,-9,382.425,1014,1011.9,29.45,29.48,36.6908,404.851,366.106,38.746,2
AOML_Explorer,Ex0824,230.778,17082008,18:40:40,25.1042,-64.0977,421.39,-9,382.427,1014,1011.9,29.49,29.48,36.6592,403.516,366.107,37.409,2
AOML_Explorer,Ex0824,230.78,17082008,18:43:26,25.0882,-64.0966,420.85,-9,382.428,1013.9,1011.7,29.43,29.47,36.6068,403.867,366.042,37.825,2
AOML_Explorer,Ex0824,230.782,17082008,18:46:13,25.0725,-64.0956,419.24,-9,382.43,1014,1011.8,29.46,29.45,36.5903,401.485,366.098,35.387,2
AOML_Explorer,Ex0824,230.784,17082008,18:48:59,25.0565,-64.0946,420,-9,382.432,1013.9,1011.7,29.52,29.48,36.5662,401.604,366.036,35.569,2
AOML_Explorer,Ex0824,230.786,17082008,18:51:46,25.0408,-64.0937,419.64,-9,382.433,1014,1011.9,29.45,29.47,36.5549,402.387,366.121,36.266,2
AOML_Explorer,Ex0824,230.788,17082008,18:54:32,25.0246,-64.0929,418.47,-9,382.435,1014,1011.9,29.44,29.45,36.5617,401.105,366.14,34.965,2
AOML_Explorer,Ex0824,230.79,17082008,18:57:19,25.0087,-64.092,419.23,-9,382.436,1014.1,1011.7,29.48,29.48,36.5782,401.667,366.04,35.627,2
AOML_Explorer,Ex0824,230.792,17082008,19:00:05,24.9925,-64.0911,423.11,-9,382.438,1013.9,1011.8,29.51,29.51,36.6232,405.273,366.054,39.219,2
AOML_Explorer,Ex0824,230.794,17082008,19:02:52,24.9767,-64.0903,422.32,-9,382.44,1013.9,1011.7,29.45,29.51,36.7167,405.603,366.019,39.584,2
AOML_Explorer,Ex0824,230.796,17082008,19:05:38,24.9606,-64.0893,420.41,-9,382.441,1013.5,1011.6,29.51,29.51,36.7188,402.523,365.983,36.54,2
AOML_Explorer,Ex0824,230.798,17082008,19:08:24,24.9448,-64.0884,421.79,-9,382.443,1013.9,1011.7,29.38,29.49,36.6882,406.018,366.039,39.979,2
AOML_Explorer,Ex0824,230.799,17082008,19:11:11,24.9287,-64.0874,418.88,-9,382.443,1013.9,1011.8,29.33,29.45,36.6878,403.434,366.111,37.323,2
AOML_Explorer,Ex0824,230.801,17082008,19:13:57,24.9129,-64.0865,418.1,-9,382.445,1013.8,1011.8,29.43,29.45,36.7208,400.848,366.113,34.735,2
AOML_Explorer,Ex0824,230.803,17082008,19:16:44,24.8968,-64.0856,420.68,-9,382.447,1013.8,1011.7,29.52,29.53,36.8016,403.067,366.009,37.058,2
AOML_Explorer,Ex0824,230.805,17082008,19:19:51,24.879,-64.0846,418.84,-9,382.448,1013.8,1011.7,29.41,29.48,36.7677,402.428,366.053,36.374,2
AOML_Explorer,Ex0824,230.807,17082008,19:22:38,24.8629,-64.0836,419.95,-9,382.45,1013.8,1011.6,29.42,29.52,36.7334,403.997,365.983,38.014,2
AOML_Explorer,Ex0824,230.809,17082008,19:25:24,24.8471,-64.0826,419.43,-9,382.452,1013.8,1011.7,29.38,29.51,36.7209,404.046,366.03,38.016,2
AOML_Explorer,Ex0824,230.811,17082008,19:28:11,24.831,-64.0815,418.91,-9,382.453,1013.7,1011.5,29.4,29.48,36.7211,402.633,365.983,36.65,2
AOML_Explorer,Ex0824,230.813,17082008,19:30:57,24.8152,-64.0803,419.65,-9,382.455,1013.7,1011.7,29.46,29.49,36.7364,402.435,366.051,36.385,2
AOML_Explorer,Ex0824,230.815,17082008,19:33:44,24.7991,-64.0791,420.4,-9,382.456,1013.9,1011.8,29.44,29.5,36.7247,403.768,366.081,37.687,2
AOML_Explorer,Ex0824,230.817,17082008,19:36:30,24.7832,-64.0779,422.16,-9,382.458,1013.7,1011.7,29.32,29.46,36.7149,406.864,366.079,40.784,2
AOML_Explorer,Ex0824,230.819,17082008,19:39:16,24.7673,-64.0767,419.93,-9,382.459,1013.7,1011.6,29.36,29.43,36.7241,403.48,366.069,37.411,2
AOML_Explorer,Ex0824,230.821,17082008,19:42:03,24.7512,-64.0754,426.4,-9,382.461,1013.9,1011.8,29.28,29.39,36.7254,410.551,366.18,44.371,2
AOML_Explorer,Ex0824,230.823,17082008,19:44:50,24.735,-64.0742,428.14,-9,382.463,1013.8,1011.7,29.43,29.4,36.7201,409.607,366.135,43.472,2
AOML_Explorer,Ex0824,230.825,17082008,19:47:36,24.7191,-64.073,421.23,-9,382.464,1013.8,1011.6,29.26,29.43,36.7181,406.582,366.074,40.508,2
AOML_Explorer,Ex0824,230.827,17082008,19:50:22,24.7032,-64.0718,419.3,-9,382.466,1013.7,1011.7,29.37,29.44,36.7246,402.865,366.104,36.761,2
AOML_Explorer,Ex0824,230.829,17082008,19:53:09,24.687,-64.0706,419.32,-9,382.467,1013.7,1011.6,29.33,29.46,36.7308,403.946,366.051,37.895,2
AOML_Explorer,Ex0824,230.83,17082008,19:55:55,24.671,-64.0694,418.98,-9,382.468,1013.7,1011.7,29.31,29.46,36.726,403.979,366.089,37.89,2
AOML_Explorer,Ex0824,230.832,17082008,19:58:41,24.6549,-64.0681,419.48,-9,382.47,1013.6,1011.6,29.48,29.5,36.718,402.042,366.019,36.023,2
AOML_Explorer,Ex0824,230.834,17082008,20:01:28,24.639,-64.0668,418.8,-9,382.471,1013.7,1011.7,29.3,29.45,36.7015,403.815,366.101,37.714,2
AOML_Explorer,Ex0824,230.836,17082008,20:04:14,24.6228,-64.0655,417.69,-9,382.473,1013.5,1011.6,29.5,29.44,36.7352,398.914,366.074,32.841,2
AOML_Explorer,Ex0824,230.851,17082008,20:25:58,24.4982,-64.0555,-9,382.55,-9,1013.3,1011.4,29.44,29.55,36.8592,-9,-9,-9,2
AOML_Explorer,Ex0824,230.853,17082008,20:28:15,24.4851,-64.0545,-9,382.78,-9,1013.3,1011.6,29.48,29.61,36.8527,-9,-9,-9,2
AOML_Explorer,Ex0824,230.855,17082008,20:30:31,24.4722,-64.0535,-9,382.8,-9,1013.4,1011.4,29.52,29.61,36.8527,-9,-9,-9,2
AOML_Explorer,Ex0824,230.856,17082008,20:32:48,24.4591,-64.0525,-9,382.94,-9,1013.4,1011.6,29.53,29.6,36.8695,-9,-9,-9,2
AOML_Explorer,Ex0824,230.858,17082008,20:35:04,24.4463,-64.0515,-9,383.03,-9,1013.3,1011.8,29.52,29.59,36.8675,-9,-9,-9,2
AOML_Explorer,Ex0824,230.861,17082008,20:39:46,24.4194,-64.0494,424.8,-9,382.483,1013.4,1011.5,29.56,29.62,36.8658,407.671,365.891,41.78,2
AOML_Explorer,Ex0824,230.863,17082008,20:42:33,24.4034,-64.0482,424.6,-9,382.481,1013.5,1011.2,29.51,29.62,36.8616,408.432,365.777,42.656,2
AOML_Explorer,Ex0824,230.865,17082008,20:45:20,24.3873,-64.0469,423.89,-9,382.479,1013.4,1011.2,29.44,29.59,36.8623,408.465,365.801,42.664,2
AOML_Explorer,Ex0824,230.867,17082008,20:48:06,24.3715,-64.0458,424.12,-9,382.478,1013.2,1011.2,29.51,29.6,36.8483,407.5,365.791,41.709,2
AOML_Explorer,Ex0824,230.869,17082008,20:50:52,24.3557,-64.0446,423.18,-9,382.476,1013.4,1011.3,29.44,29.55,36.8416,407.091,365.87,41.221,2
AOML_Explorer,Ex0824,230.871,17082008,20:53:39,24.3398,-64.0435,422.29,-9,382.474,1013.4,1011.2,29.42,29.54,36.8273,406.426,365.839,40.587,2
AOML_Explorer,Ex0824,230.873,17082008,20:56:25,24.3242,-64.0423,424.72,-9,382.473,1013.2,1011,29.57,29.7,36.8549,408.71,365.624,43.086,2
AOML_Explorer,Ex0824,230.874,17082008,20:59:11,24.3084,-64.0412,423.82,-9,382.472,1013.3,1011.1,29.39,29.6,36.8442,409.441,365.748,43.694,2
AOML_Explorer,Ex0824,230.876,17082008,21:01:57,24.2928,-64.0401,421.93,-9,382.47,1013.3,1011.1,29.41,29.52,36.8392,405.876,365.815,40.061,2
AOML_Explorer,Ex0824,230.878,17082008,21:04:44,24.2769,-64.0389,421.93,-9,382.468,1013.3,1011.2,29.35,29.47,36.8306,406.104,365.894,40.21,2
AOML_Explorer,Ex0824,230.88,17082008,21:07:30,24.2613,-64.0378,422.04,-9,382.467,1013.5,1011.2,29.42,29.5,36.8278,405.54,365.867,39.674,2
AOML_Explorer,Ex0824,230.882,17082008,21:10:16,24.2457,-64.0366,422.84,-9,382.465,1013.4,1011.3,29.44,29.56,36.8247,406.936,365.851,41.085,2
AOML_Explorer,Ex0824,230.884,17082008,21:13:03,24.2298,-64.0354,422.65,-9,382.463,1013.5,1011.3,29.49,29.59,36.8178,406.403,365.823,40.58,2
AOML_Explorer,Ex0824,230.886,17082008,21:15:49,24.2142,-64.0343,424.09,-9,382.462,1013.4,1011.4,29.58,29.66,36.8186,407.314,365.798,41.516,2
AOML_Explorer,Ex0824,230.888,17082008,21:18:56,24.1963,-64.033,423.72,-9,382.46,1013.2,1011.2,29.62,29.68,36.819,406.493,365.704,40.789,2
AOML_Explorer,Ex0824,230.89,17082008,21:21:42,24.1807,-64.0318,425.66,-9,382.458,1013.5,1011.2,29.5,29.66,36.8144,410.328,365.72,44.608,2
AOML_Explorer,Ex0824,230.892,17082008,21:24:29,24.1649,-64.0307,424.45,-9,382.457,1013.5,1011.6,29.55,29.66,36.8139,408.248,365.868,42.38,2
AOML_Explorer,Ex0824,230.894,17082008,21:27:15,24.1493,-64.0296,425.04,-9,382.455,1013.6,1011.4,29.59,29.58,36.8144,406.75,365.861,40.888,2
AOML_Explorer,Ex0824,230.896,17082008,21:30:01,24.1338,-64.0284,425.45,-9,382.453,1013.6,1011.4,29.5,29.5,36.8186,407.401,365.929,41.472,2
AOML_Explorer,Ex0824,230.898,17082008,21:32:47,24.118,-64.0273,423.83,-9,382.452,1013.6,1011.4,29.5,29.46,36.8131,405.163,365.962,39.202,2
AOML_Explorer,Ex0824,230.9,17082008,21:35:34,24.1025,-64.0261,423.95,-9,382.45,1013.6,1011.5,29.59,29.48,36.8078,403.994,365.98,38.014,2
AOML_Explorer,Ex0824,230.902,17082008,21:38:20,24.0867,-64.025,424.5,-9,382.448,1013.5,1011.4,29.6,29.5,36.8008,404.638,365.924,38.714,2
AOML_Explorer,Ex0824,230.904,17082008,21:41:06,24.0713,-64.0239,424.86,-9,382.447,1013.4,1011.3,29.62,29.54,36.7949,405.263,365.85,39.413,2
AOML_Explorer,Ex0824,230.905,17082008,21:43:53,24.0556,-64.0227,424.71,-9,382.446,1013.5,1011.4,29.55,29.53,36.7881,406.258,365.896,40.363,2
AOML_Explorer,Ex0824,230.907,17082008,21:46:39,24.0401,-64.0216,424.78,-9,382.444,1013.4,1011.2,29.57,29.51,36.7901,405.578,365.836,39.742,2
AOML_Explorer,Ex0824,230.909,17082008,21:49:25,24.0247,-64.0205,424.89,-9,382.443,1013.5,1011.3,29.61,29.53,36.7884,405.343,365.855,39.488,2
AOML_Explorer,Ex0824,230.911,17082008,21:52:11,24.009,-64.0194,424.77,-9,382.441,1013.4,1011.6,29.51,29.53,36.7896,407,365.966,41.034,2
AOML_Explorer,Ex0824,230.913,17082008,21:54:57,23.9935,-64.0183,424.45,-9,382.439,1013.5,1011.3,29.54,29.54,36.785,406.363,365.843,40.52,2
AOML_Explorer,Ex0824,230.915,17082008,21:57:43,23.978,-64.0172,423.96,-9,382.438,1013.5,1011.5,29.56,29.53,36.7866,405.36,365.925,39.435,2
AOML_Explorer,Ex0824,230.917,17082008,22:00:30,23.9622,-64.016,424.14,-9,382.436,1013.5,1011.5,29.56,29.53,36.7892,405.532,365.924,39.608,2
AOML_Explorer,Ex0824,230.919,17082008,22:03:17,23.9465,-64.0148,424.46,-9,382.434,1013.6,1011.5,29.59,29.52,36.798,405.165,365.931,39.234,2
AOML_Explorer,Ex0824,230.921,17082008,22:06:03,23.9312,-64.0136,424.73,-9,382.433,1013.5,1011.5,29.57,29.53,36.7978,405.915,365.92,39.994,2
AOML_Explorer,Ex0824,230.923,17082008,22:08:49,23.9158,-64.0124,423.03,-9,382.431,1013.5,1011.5,29.57,29.49,36.7979,403.607,365.953,37.653,2
AOML_Explorer,Ex0824,230.925,17082008,22:11:35,23.8996,-64.0112,423.21,-9,382.429,1013.5,1011.5,29.46,29.48,36.7997,405.595,365.96,39.635,2
AOML_Explorer,Ex0824,230.927,17082008,22:14:21,23.8834,-64.0102,423.32,-9,382.428,1013.5,1011.4,29.53,29.5,36.8059,404.777,365.904,38.873,2
AOML_Explorer,Ex0824,230.929,17082008,22:17:08,23.8669,-64.0091,423.43,-9,382.426,1013.7,1011.4,29.52,29.5,36.8025,405.146,365.902,39.244,2
AOML_Explorer,Ex0824,230.931,17082008,22:20:15,23.8484,-64.0079,422.64,-9,382.424,1013.6,1011.4,29.49,29.46,36.8026,404.206,365.935,38.271,2
AOML_Explorer,Ex0824,230.933,17082008,22:23:02,23.8318,-64.0068,422.65,-9,382.423,1013.6,1011.4,29.49,29.43,36.8039,403.703,365.96,37.744,2
AOML_Explorer,Ex0824,230.935,17082008,22:25:48,23.8155,-64.0058,423.19,-9,382.421,1013.7,1011.5,29.54,29.45,36.7921,403.7,365.978,37.722,2
AOML_Explorer,Ex0824,230.937,17082008,22:28:34,23.7992,-64.0048,423.2,-9,382.419,1013.7,1011.4,29.52,29.45,36.7986,404.07,365.939,38.131,2
AOML_Explorer,Ex0824,230.938,17082008,22:31:20,23.7826,-64.0038,423.83,-9,382.419,1013.7,1011.4,29.54,29.48,36.7925,404.824,365.913,38.911,2
AOML_Explorer,Ex0824,230.94,17082008,22:34:06,23.7663,-64.0028,423.35,-9,382.417,1013.6,1011.5,29.52,29.47,36.7857,404.514,365.957,38.557,2
AOML_Explorer,Ex0824,230.942,17082008,22:36:53,23.7496,-64.0018,423.21,-9,382.415,1013.6,1011.5,29.49,29.46,36.7787,404.751,365.964,38.787,2
AOML_Explorer,Ex0824,230.944,17082008,22:39:39,23.7333,-64.0008,422.5,-9,382.414,1013.7,1011.5,29.45,29.41,36.7783,403.981,366.005,37.975,2
AOML_Explorer,Ex0824,230.946,17082008,22:42:25,23.717,-63.9998,422.94,-9,382.412,1013.6,1011.5,29.42,29.39,36.7859,404.559,366.021,38.538,2
AOML_Explorer,Ex0824,230.961,17082008,23:03:49,23.5898,-63.9928,-9,383.28,-9,1013.5,1011.6,29.41,29.34,36.8501,-9,-9,-9,2
AOML_Explorer,Ex0824,230.963,17082008,23:06:06,23.576,-63.992,-9,383.41,-9,1013.5,1011.5,29.43,29.34,36.8546,-9,-9,-9,2
AOML_Explorer,Ex0824,230.964,17082008,23:08:22,23.5624,-63.9912,-9,383.58,-9,1013.5,1011.7,29.39,29.32,36.8624,-9,-9,-9,2
AOML_Explorer,Ex0824,230.966,17082008,23:10:39,23.5486,-63.9904,-9,383.58,-9,1013.5,1011.5,29.41,29.3,36.8707,-9,-9,-9,2
AOML_Explorer,Ex0824,230.967,17082008,23:12:55,23.535,-63.9897,-9,383.8,-9,1013.5,1011.6,29.39,29.3,36.8777,-9,-9,-9,2
AOML_Explorer,Ex0824,230.971,17082008,23:17:37,23.5067,-63.9881,426.56,-9,382.388,1013.8,1011.7,29.44,29.33,36.8807,406.709,366.125,40.584,2
AOML_Explorer,Ex0824,230.973,17082008,23:20:44,23.4877,-63.9867,426.34,-9,382.385,1013.9,1011.6,29.41,29.33,36.8722,407.086,366.085,41.001,2
AOML_Explorer,Ex0824,230.975,17082008,23:23:31,23.4711,-63.9855,427.23,-9,382.383,1013.9,1011.6,29.43,29.34,36.8769,407.744,366.074,41.67,2
AOML_Explorer,Ex0824,230.977,17082008,23:26:17,23.4541,-63.9842,427.47,-9,382.38,1013.7,1011.5,29.42,29.34,36.8715,408.071,366.034,42.037,2
AOML_Explorer,Ex0824,230.979,17082008,23:29:03,23.4375,-63.983,426.92,-9,382.377,1013.8,1011.3,29.36,29.31,36.867,408.163,365.982,42.181,2
AOML_Explorer,Ex0824,230.98,17082008,23:31:49,23.4209,-63.9817,426.21,-9,382.376,1013.9,1011.6,29.39,29.29,36.8698,406.636,366.11,40.526,2
AOML_Explorer,Ex0824,230.982,17082008,23:34:35,23.4039,-63.9804,426.14,-9,382.373,1013.7,1011.5,29.39,29.29,36.8628,406.486,366.07,40.416,2
AOML_Explorer,Ex0824,230.984,17082008,23:37:21,23.3873,-63.9791,424.81,-9,382.371,1013.6,1011.1,29.34,29.27,36.8449,405.738,365.935,39.803,2
AOML_Explorer,Ex0824,230.986,17082008,23:40:08,23.3704,-63.9778,422.82,-9,382.368,1013.7,1011.4,29.29,29.22,36.8479,403.926,366.087,37.838,2
AOML_Explorer,Ex0824,230.988,17082008,23:42:54,23.3539,-63.9764,421.26,-9,382.366,1013.7,1011.1,29.31,29.2,36.8487,401.737,365.989,35.748,2
AOML_Explorer,Ex0824,230.992,17082008,23:48:26,23.3205,-63.9737,420.7,-9,382.36,1013.9,1011,29.33,29.22,36.8522,401.267,365.93,35.337,2
AOML_Explorer,Ex0824,230.994,17082008,23:51:12,23.3041,-63.9723,421.18,-9,382.358,1013.7,1011.3,29.39,29.25,36.8606,401.076,366.014,35.062,2
AOML_Explorer,Ex0824,230.996,17082008,23:53:58,23.2875,-63.9709,421.33,-9,382.355,1013.6,1011.2,29.36,29.26,36.8661,401.885,365.966,35.92,2
AOML_Explorer,Ex0824,230.998,17082008,23:56:45,23.2708,-63.9695,421.62,-9,382.352,1013.6,1011,29.4,29.28,36.8658,401.784,365.871,35.913,2
AOML_Explorer,Ex0824,231,17082008,23:59:31,23.2512,-63.9683,421.44,-9,382.35,1013.7,1011,29.39,29.28,36.8616,401.834,365.869,35.965,2
AOML_Explorer,Ex0824,231.002,18082008,0:02:17,23.2374,-63.9673,420.98,-9,382.347,1014,1011.3,29.36,29.26,36.8582,401.716,365.996,35.721,2
AOML_Explorer,Ex0824,231.004,18082008,0:05:04,23.2208,-63.9662,420.52,-9,382.344,1014,1011.2,29.34,29.24,36.8619,401.296,365.973,35.324,2
AOML_Explorer,Ex0824,231.005,18082008,0:07:50,23.2039,-63.9651,420.04,-9,382.343,1014.1,1011.2,29.3,29.21,36.8598,401.086,365.997,35.089,2
AOML_Explorer,Ex0824,231.007,18082008,0:10:36,23.1874,-63.9639,419.57,-9,382.341,1014,1011.2,29.29,29.18,36.8644,400.267,366.02,34.247,2
AOML_Explorer,Ex0824,231.009,18082008,0:13:22,23.1708,-63.9628,419.22,-9,382.338,1014.3,1011.3,29.24,29.16,36.8642,400.611,366.072,34.539,2
AOML_Explorer,Ex0824,231.011,18082008,0:16:09,23.154,-63.9617,418.82,-9,382.335,1013.9,1011.2,29.26,29.14,36.8636,399.369,366.049,33.321,2
AOML_Explorer,Ex0824,231.013,18082008,0:19:16,23.1354,-63.9605,418.81,-9,382.333,1013.9,1011.4,29.29,29.16,36.8659,399.163,366.104,33.058,2
AOML_Explorer,Ex0824,231.015,18082008,0:22:02,23.1186,-63.9593,419.6,-9,382.33,1013.8,1011.3,29.29,29.18,36.8676,400.213,366.047,34.166,2
AOML_Explorer,Ex0824,231.017,18082008,0:24:48,23.1021,-63.9583,419.48,-9,382.327,1013.8,1011.3,29.33,29.19,36.87,399.554,366.036,33.518,2
AOML_Explorer,Ex0824,231.019,18082008,0:27:34,23.0856,-63.9571,419.78,-9,382.325,1013.9,1011.4,29.3,29.19,36.8631,400.417,366.071,34.345,2
AOML_Explorer,Ex0824,231.021,18082008,0:30:20,23.0687,-63.956,419.21,-9,382.322,1014.3,1011.4,29.29,29.17,36.8588,399.877,366.086,33.791,2
AOML_Explorer,Ex0824,231.023,18082008,0:33:07,23.0523,-63.9548,418.89,-9,382.32,1014.1,1011.4,29.29,29.17,36.8561,399.49,366.083,33.407,2
AOML_Explorer,Ex0824,231.025,18082008,0:35:53,23.0355,-63.9536,418.69,-9,382.317,1014,1011.4,29.29,29.17,36.8489,399.258,366.081,33.177,2
AOML_Explorer,Ex0824,231.027,18082008,0:38:39,23.0191,-63.9525,418.57,-9,382.314,1014.2,1011.3,29.3,29.16,36.8501,398.879,366.049,32.83,2
AOML_Explorer,Ex0824,231.029,18082008,0:41:25,23.0026,-63.9513,418.76,-9,382.312,1014.1,1011.5,29.27,29.17,36.8445,399.722,366.113,33.609,2
AOML_Explorer,Ex0824,231.031,18082008,0:44:11,22.9859,-63.9501,418.22,-9,382.309,1014.2,1011.4,29.24,29.15,36.8377,399.445,366.09,33.355,2
AOML_Explorer,Ex0824,231.033,18082008,0:46:58,22.9693,-63.9489,417.59,-9,382.306,1014.2,1011.4,29.23,29.12,36.8321,398.515,366.113,32.402,2
AOML_Explorer,Ex0824,231.035,18082008,0:49:44,22.9525,-63.9477,417.03,-9,382.304,1014.1,1011.6,29.2,29.1,36.8297,398.135,366.202,31.933,2
AOML_Explorer,Ex0824,231.036,18082008,0:52:30,22.936,-63.9465,417.13,-9,382.303,1014.3,1011.6,29.21,29.09,36.832,397.967,366.209,31.757,2
AOML_Explorer,Ex0824,231.038,18082008,0:55:16,22.9196,-63.9453,417.01,-9,382.3,1014.1,1011.5,29.19,29.08,36.8334,397.957,366.178,31.779,2
AOML_Explorer,Ex0824,231.04,18082008,0:58:02,22.9029,-63.9441,417.19,-9,382.297,1014.4,1011.5,29.21,29.08,36.8394,397.897,366.175,31.721,2
AOML_Explorer,Ex0824,231.042,18082008,1:00:48,22.8864,-63.9429,417.56,-9,382.295,1014.3,1011.7,29.2,29.08,36.8447,398.386,366.248,32.138,2
AOML_Explorer,Ex0824,231.044,18082008,1:03:35,22.8697,-63.9416,418.25,-9,382.292,1014.3,1011.8,29.24,29.09,36.8572,398.501,366.275,32.227,2
AOML_Explorer,Ex0824,231.046,18082008,1:06:21,22.8534,-63.9404,419.08,-9,382.289,1014.2,1011.7,29.27,29.11,36.8692,399.055,366.218,32.837,2
AOML_Explorer,Ex0824,231.048,18082008,1:09:07,22.8369,-63.9392,420.27,-9,382.287,1014.4,1011.4,29.29,29.14,36.8742,400.421,366.077,34.344,2
AOML_Explorer,Ex0824,231.05,18082008,1:11:53,22.8202,-63.938,420.75,-9,382.284,1014,1011.4,29.27,29.15,36.8732,401.241,366.066,35.175,2
AOML_Explorer,Ex0824,231.052,18082008,1:14:39,22.8037,-63.9368,420.8,-9,382.281,1014.2,1011.5,29.33,29.17,36.8774,400.637,366.084,34.552,2
AOML_Explorer,Ex0824,231.054,18082008,1:17:25,22.7872,-63.9355,421.59,-9,382.279,1014.4,1011.5,29.36,29.21,36.8698,401.613,366.048,35.565,2
AOML_Explorer,Ex0824,231.056,18082008,1:20:33,22.7683,-63.934,421.07,-9,382.276,1014.4,1011.5,29.37,29.22,36.8597,401.108,366.037,35.071,2
AOML_Explorer,Ex0824,231.071,18082008,1:41:56,22.6403,-63.9246,-9,383.57,-9,1014.2,1011.5,29.36,29.22,36.6777,-9,-9,-9,2
AOML_Explorer,Ex0824,231.072,18082008,1:44:12,22.6264,-63.9236,-9,383.82,-9,1014.3,1011.5,29.33,29.22,36.6639,-9,-9,-9,2
AOML_Explorer,Ex0824,231.074,18082008,1:46:29,22.6129,-63.9226,-9,383.85,-9,1014.1,1011.7,29.34,29.22,36.6542,-9,-9,-9,2
AOML_Explorer,Ex0824,231.076,18082008,1:48:45,22.5992,-63.9216,-9,383.95,-9,1014.2,1011.3,29.33,29.21,36.6434,-9,-9,-9,2
AOML_Explorer,Ex0824,231.077,18082008,1:51:01,22.5857,-63.9206,-9,384,-9,1014.4,1011.5,29.35,29.21,36.645,-9,-9,-9,2
AOML_Explorer,Ex0824,231.08,18082008,1:55:43,22.5576,-63.9184,419.6,-9,382.251,1014.3,1011.5,29.37,29.25,36.6311,400.172,365.986,34.187,2
AOML_Explorer,Ex0824,231.082,18082008,1:58:30,22.5409,-63.917,418.84,-9,382.251,1014.2,1011.4,29.34,29.23,36.6047,399.603,365.964,33.639,2
AOML_Explorer,Ex0824,231.084,18082008,2:01:16,22.5245,-63.9156,418.58,-9,382.25,1014.4,1011.3,29.33,29.23,36.5876,399.616,365.926,33.689,2
AOML_Explorer,Ex0824,231.086,18082008,2:04:02,22.5077,-63.9142,417.95,-9,382.25,1014.4,1011,29.31,29.2,36.586,398.864,365.839,33.026,2
AOML_Explorer,Ex0824,231.088,18082008,2:06:48,22.4911,-63.9129,417.91,-9,382.25,1014.4,1011.3,29.35,29.21,36.5933,398.283,365.943,32.34,2
AOML_Explorer,Ex0824,231.09,18082008,2:09:34,22.4746,-63.9119,418.39,-9,382.249,1014.4,1011.4,29.36,29.22,36.5994,398.731,365.971,32.76,2
AOML_Explorer,Ex0824,231.092,18082008,2:12:20,22.4577,-63.9108,418.78,-9,382.249,1014.3,1011.4,29.4,29.25,36.6231,398.856,365.945,32.911,2
AOML_Explorer,Ex0824,231.094,18082008,2:15:07,22.4411,-63.9097,418.95,-9,382.248,1014.4,1011.6,29.41,29.27,36.6204,399.218,366.003,33.215,2
AOML_Explorer,Ex0824,231.096,18082008,2:17:53,22.4242,-63.9084,418.79,-9,382.248,1014.4,1011.4,29.36,29.27,36.5735,399.957,365.927,34.03,2
AOML_Explorer,Ex0824,231.098,18082008,2:21:01,22.4055,-63.9069,417.72,-9,382.247,1014.4,1011.2,29.34,29.25,36.5392,398.954,365.869,33.085,2
AOML_Explorer,Ex0824,231.1,18082008,2:23:47,22.3885,-63.9055,417.28,-9,382.247,1014.4,1011.2,29.36,29.23,36.5318,397.841,365.885,31.956,2
AOML_Explorer,Ex0824,231.102,18082008,2:26:33,22.3718,-63.9042,417.44,-9,382.246,1014.3,1011.3,29.32,29.22,36.5222,398.495,365.931,32.565,2
AOML_Explorer,Ex0824,231.104,18082008,2:29:19,22.3549,-63.9029,417.16,-9,382.246,1014.6,1011.4,29.31,29.21,36.5119,398.36,365.976,32.383,2
AOML_Explorer,Ex0824,231.106,18082008,2:32:05,22.3378,-63.9016,416.93,-9,382.245,1014.4,1011.3,29.31,29.2,36.4999,397.89,365.946,31.943,2
AOML_Explorer,Ex0824,231.108,18082008,2:34:51,22.321,-63.9003,416.95,-9,382.245,1014.3,1011.3,29.32,29.21,36.5026,397.859,365.938,31.921,2
AOML_Explorer,Ex0824,231.109,18082008,2:37:38,22.3039,-63.8991,417.11,-9,382.245,1014.6,1011.3,29.33,29.21,36.5081,397.957,365.937,32.019,2
AOML_Explorer,Ex0824,231.111,18082008,2:40:24,22.2871,-63.8979,417.27,-9,382.244,1014.6,1011.2,29.35,29.22,36.5081,397.922,365.891,32.031,2
AOML_Explorer,Ex0824,231.113,18082008,2:43:10,22.27,-63.8966,417.26,-9,382.244,1014.4,1011.2,29.35,29.22,36.5164,397.831,365.891,31.941,2
AOML_Explorer,Ex0824,231.115,18082008,2:45:56,22.2533,-63.8955,417.15,-9,382.243,1014.5,1011.3,29.35,29.23,36.5147,397.935,365.919,32.016,2
AOML_Explorer,Ex0824,231.117,18082008,2:48:42,22.2366,-63.8943,416.76,-9,382.243,1014.5,1011.3,29.35,29.23,36.5114,397.563,365.919,31.644,2